星链-1393 (STARLINK-1393 )

导读 | 星芒AI

STARLINK-1393 是 SpaceX Starlink 卫星互联网项目中的一颗低轨卫星,属于第1393批发射任务部署的卫星之一。该卫星运行在约550公里高度的近地轨道,旨在为全球用户提供高速互联网服务。Starlink 项目通过大规模部署卫星,构建覆盖全球的宽带网络,特别服务于偏远和网络基础设施薄弱的地区。STARLINK-1393 的发射和运行有助于增强 Starlink 网络的稳定性和覆盖范围,提升用户连接体验。

基本信息
目录编号:
45678
目录名称:
STARLINK-1393
国际标识:
2020-035X
轨道中心:
EARTH
卫星名称:
星链-1393
卫星全名:
星链-1393 (STARLINK-1393 )
卫星状态:
已陨落 最后检测时间 2025-03-07
发射日期:
2020-06-04 UTC
国别 :
美国 (US)
星等 :
--
轨道信息
数据来源 国际轨道数据
星历时间: 2025-03-07T09:00:21+0800
轨道信息已过期284天
半长轴: 6524.844km
偏心率: 0.0008039
轨道倾角: 53.025°
近地点辐角 264.816°
升交点赤经 226.923°
平近点角 200.368°
近地点: 141.463km
远地点: 151.955km
周期: 87.421分钟
每日圈数: 16.47205
详细信息
固有亮度:
5
最大亮度:
2.5
卫星平台:
Starlink V1.0
覆盖范围:
全球
运营商:
太空探索技术公司
运营商所在国:
美国
制造商(研发单位):
太空探索技术公司
制造商所在国:
美国
使用方式:
暂无
卫星简介
星链(Starlink)计划是由太空探索技术公司(SpaceX)提出的一个巨型低轨卫星互联网星座项目,计划在2019年至2024年间在太空搭建由约1.2万颗卫星组成的“星链”网络,其中1584颗将部署在地球上空550千米处的近地轨道,并从2020年开始工作。该卫星仍在工作。